GW5353 Weather Reports


time (UTC)temp
F
wind
direction
speed
knots
gust
knots
rain 1hr
in
rain 24hr
in
rain mn
in
humidity
%
barometer
mb
20260505022558 35 141 0.0 0.9 0.18 0.20 0.20 90 1013.6
20260505022058 35 91 0.0 0.9 0.18 0.20 0.20 90 1013.6
20260505021600 36 252 0.0 1.7 0.17 0.19 0.19 89 1013.7
20260505021057 36 295 0.0 5.2 0.15 0.17 0.17 88 1013.6
20260505020558 37 304 2.6 5.2 0.12 0.14 0.14 87 1013.6
20260505020059 38 280 1.7 6.1 0.11 0.12 0.12 86 1013.5
20260505015555 39 309 1.7 10.4 0.09 0.10 0.10 86 1013.4
20260505015054 40 328 6.1 10.4 0.06 0.07 0.07 82 1013.3
20260505014554 41 333 0.9 2.6 0.03 0.04 0.04 84 1012.8
20260505014053 41 142 0.0 1.7 0.02 0.03 0.03 83 1012.4
20260505013552 41 48 0.9 2.6 0.01 0.02 0.02 82 1012.3
20260505013052 42 329 0.0 1.7 0.01 0.02 0.02 82 1012.3
20260505012552 42 41 0.0 0.9 0.01 0.02 0.02 80 1012.2
20260505012052 42 49 0.0 1.7 0.01 0.02 0.02 79 1012.0
20260505011608 42 49 0.0 3.5 0.01 0.02 0.02 78 1012.1
20260505011051 43 95 0.0 1.7 0.01 0.02 0.02 77 1012.2
20260505010551 43 27 0.0 4.3 0.00 0.01 0.01 75 1012.0
20260505010051 44 47 2.6 5.2 0.00 0.01 0.01 74 1012.0
20260505005551 44 6 0.9 3.5 0.00 0.01 0.01 73 1012.2
20260505005051 45 77 0.9 4.3 0.00 0.01 0.01 70 1011.9
20260505004555 45 54 1.7 7.0 0.00 0.01 0.01 70 1012.0
20260505004152 45 41 5.2 7.8 0.00 0.01 0.01 69 1012.0
20260505003549 46 82 4.3 8.7 0.00 0.01 0.01 65 1012.0
20260505003053 47 67 4.3 9.6 0.00 0.01 0.01 66 1011.7
20260505002549 47 98 5.2 9.6 0.00 0.01 0.01 64 1011.7
20260505002050 48 89 3.5 8.7 0.00 0.01 0.01 61 1011.6
20260505001604 48 82 3.5 8.7 0.00 0.01 0.01 59 1011.6
20260505001049 48 91 1.7 5.2 0.00 0.01 0.01 57 1011.7
20260505000549 48 308 1.7 4.3 0.00 0.01 0.01 57 1011.5
20260505000104 49 271 1.7 4.3 0.00 0.01 0.01 57 1011.6
20260504235548 49 240 0.9 4.3 0.00 0.01 0.01 57 1011.5
20260504235051 48 212 1.7 8.7 0.00 0.01 0.01 57 1011.6
20260504234550 48 270 3.5 9.6 0.00 0.01 0.01 57 1011.6
20260504234047 49 242 5.2 9.6 0.00 0.01 0.01 57 1011.8
20260504233547 48 283 3.5 7.8 0.00 0.01 0.01 58 1011.6
20260504233102 48 302 3.5 10.4 0.00 0.01 0.01 59 1011.5
20260504232547 47 279 5.2 10.4 0.00 0.01 0.01 60 1011.6
20260504232049 46 158 4.3 13.0 0.00 0.01 0.01 61 1011.7
20260504231547 46 304 2.6 9.6 0.00 0.01 0.01 62 1011.9
20260504231048 46 218 1.7 9.6 0.00 0.01 0.01 63 1011.8
20260504230548 46 55 0.0 1.7 0.00 0.01 0.01 67 1011.7
20260504230046 46 82 0.0 1.7 0.00 0.01 0.01 69 1011.5
20260504225549 46 72 0.0 1.7 0.00 0.01 0.01 69 1011.2
20260504225045 46 149 0.0 3.5 0.01 0.01 0.01 68 1011.2
20260504224546 45 170 0.9 6.1 0.01 0.01 0.01 68 1011.1
20260504224045 45 239 0.9 8.7 0.01 0.01 0.01 67 1011.2
20260504223545 45 257 0.9 11.3 0.01 0.01 0.01 70 1011.5
20260504223047 44 252 4.3 11.3 0.01 0.01 0.01 71 1011.5
20260504222549 44 272 3.5 7.8 0.01 0.01 0.01 76 1011.7
20260504222047 44 281 2.6 7.8 0.01 0.01 0.01 77 1012.0
20260504221544 43 284 1.7 7.8 0.01 0.01 0.01 80 1012.1
20260504221044 43 291 2.6 7.8 0.01 0.01 0.01 79 1012.2
20260504220543 43 311 2.6 9.6 0.01 0.01 0.01 78 1012.3
20260504220042 44 260 4.3 11.3 0.01 0.01 0.01 76 1012.4
20260504215541 46 273 4.3 13.0 0.01 0.01 0.01 69 1012.6
20260504215040 48 289 3.5 13.9 0.00 0.00 0.00 57 1012.7
20260504214541 49 310 5.2 13.9 0.00 0.00 0.00 49 1012.4
20260504214040 49 249 1.7 9.6 0.00 0.00 0.00 48 1011.7
20260504213539 50 309 4.3 9.6 0.00 0.00 0.00 47 1011.0
20260504213039 51 109 4.3 11.3 0.00 0.00 0.00 43 1011.1
20260504212540 54 89 2.6 9.6 0.00 0.00 0.00 39 1011.1
20260504212040 55 142 6.1 9.6 0.00 0.00 0.00 31 1010.9
20260504211539 55 288 0.0 7.0 0.00 0.00 0.00 32 1010.7
20260504211040 55 330 0.9 7.0 0.00 0.00 0.00 33 1010.7
20260504210538 55 201 0.9 6.1 0.00 0.00 0.00 33 1010.6
20260504210038 55 162 1.7 12.2 0.00 0.00 0.00 34 1010.8
20260504205541 55 245 5.2 12.2 0.00 0.00 0.00 34 1010.8
20260504205036 56 351 1.7 9.6 0.00 0.00 0.00 34 1010.9
20260504204536 56 246 2.6 16.5 0.00 0.00 0.00 34 1010.9
20260504204036 56 300 3.5 16.5 0.00 0.00 0.00 35 1010.8
20260504203537 56 268 6.1 13.0 0.00 0.00 0.00 34 1010.9
20260504203034 55 310 7.8 13.0 0.00 0.00 0.00 35 1010.9
20260504202535 55 332 3.5 13.0 0.00 0.00 0.00 38 1011.0
20260504202034 54 308 4.3 13.0 0.00 0.00 0.00 40 1011.1
20260504201530 54 245 7.0 19.1 0.00 0.00 0.00 39 1011.3
20260504201029 53 298 7.0 12.2 0.00 0.00 0.00 41 1011.3
20260504200530 53 276 3.5 8.7 0.00 0.00 0.00 43 1011.5
20260504200029 52 322 5.2 8.7 0.00 0.00 0.00 46 1011.7
20260504195527 52 103 4.3 7.8 0.00 0.00 0.00 46 1011.8
20260504195027 50 217 0.9 8.7 0.00 0.00 0.00 51 1012.1
20260504194531 49 305 2.6 8.7 0.00 0.00 0.00 50 1012.2
20260504194026 49 293 1.7 7.8 0.00 0.00 0.00 49 1012.5
20260504193527 48 266 2.6 7.8 0.00 0.00 0.00 50 1012.5
20260504193027 48 302 1.7 10.4 0.00 0.00 0.00 50 1012.5
20260504192526 48 271 2.6 10.4 0.00 0.00 0.00 51 1012.6
20260504192026 48 146 2.6 8.7 0.00 0.00 0.00 50 1012.5
20260504191525 49 297 1.7 10.4 0.00 0.00 0.00 49 1012.6
20260504191025 50 301 4.3 10.4 0.00 0.00 0.00 46 1012.6
20260504190525 50 278 4.3 7.8 0.00 0.00 0.00 46 1012.3
20260504190026 50 263 1.7 13.0 0.00 0.00 0.00 43 1012.2
20260504185524 50 203 5.2 13.0 0.00 0.00 0.00 41 1012.2
20260504185024 50 354 4.3 11.3 0.00 0.00 0.00 39 1012.0
20260504184525 51 311 7.0 14.8 0.00 0.00 0.00 38 1011.9
20260504184023 51 241 8.7 16.5 0.00 0.00 0.00 38 1011.9
20260504183524 52 300 4.3 12.2 0.00 0.00 0.00 42 1011.7
20260504183023 52 260 6.1 12.2 0.00 0.00 0.00 41 1011.8
20260504182521 52 331 5.2 13.0 0.00 0.00 0.00 42 1012.0
20260504182023 52 267 3.5 13.0 0.00 0.00 0.00 42 1012.0
20260504181521 52 264 7.0 16.5 0.00 0.00 0.00 42 1012.0
20260504181021 52 287 5.2 16.5 0.00 0.00 0.00 42 1012.0
20260504180519 52 316 4.3 12.2 0.00 0.00 0.00 42 1012.2
20260504180019 52 327 2.6 12.2 0.00 0.00 0.00 41 1012.3
20260504175518 52 295 5.2 12.2 0.00 0.00 0.00 40 1012.4
20260504175020 52 284 5.2 11.3 0.00 0.00 0.00 40 1012.5
20260504174516 52 257 4.3 11.3 0.00 0.00 0.00 40 1012.5
20260504174015 52 257 6.1 13.9 0.00 0.00 0.00 40 1012.7
20260504173515 52 231 7.8 13.9 0.00 0.00 0.00 40 1012.7
20260504173018 52 274 7.0 15.6 0.00 0.00 0.00 41 1012.9
20260504172513 51 314 7.0 15.6 0.00 0.00 0.00 41 1012.9
20260504172014 51 280 3.5 12.2 0.00 0.00 0.00 42 1013.1
20260504171517 51 296 7.0 12.2 0.00 0.00 0.00 40 1013.1
20260504171012 51 226 2.6 5.2 0.00 0.00 0.00 41 1013.1
20260504170511 51 308 0.9 12.2 0.00 0.00 0.00 42 1013.2
20260504160110 48 46 5.2 8.7 0.00 0.00 0.00 48 1013.4
20260504151050 41 326 0.0 2.6 0.00 0.00 0.00 64 1014.2
20260504150550 41 319 0.9 1.7 0.00 0.00 0.00 64 1014.2
20260504141039 39 263 0.9 3.5 0.00 0.00 0.00 63 1015.0
20260504140539 38 271 0.9 2.6 0.00 0.00 0.00 64 1014.9
20260504130534 34 312 0.9 3.5 0.00 0.00 0.00 65 1014.7
20260504110525 30 295 0.9 2.6 0.00 0.00 0.00 70 1014.2
20260504100519 31 278 0.9 5.2 0.00 0.00 0.00 68 1014.3
20260504081508 32 248 2.6 4.3 0.00 0.00 0.00 69 1015.2
20260504081005 32 284 2.6 4.3 0.00 0.00 0.00 69 1015.2
20260504080504 32 284 0.9 4.3 0.00 0.00 0.00 69 1015.3
20260504050542 38 277 1.7 6.1 0.00 0.00 0.00 58 1016.5
20260504045543 39 300 1.7 5.2 0.00 0.00 0.00 57 1016.5
20260504045039 40 239 1.7 5.2 0.00 0.00 0.00 56 1016.5
20260504044539 40 266 2.6 7.0 0.00 0.00 0.00 55 1016.5
20260504044039 41 274 2.6 7.0 0.00 0.00 0.00 55 1016.6
20260504043539 41 302 1.7 6.1 0.00 0.00 0.00 54 1016.6
20260504043047 41 245 3.5 7.0 0.00 0.00 0.00 54 1016.6
20260504042540 41 280 3.5 7.0 0.00 0.00 0.00 54 1016.6
20260504042042 41 276 2.6 5.2 0.00 0.00 0.00 55 1016.7
20260504041539 41 271 1.7 6.1 0.00 0.00 0.00 55 1016.6
20260504041038 41 252 3.5 6.1 0.00 0.00 0.00 55 1016.6
20260504040538 41 300 3.5 7.0 0.00 0.00 0.00 55 1016.6
20260504040036 41 266 2.6 7.0 0.00 0.00 0.00 54 1016.7
20260504035536 41 269 1.7 3.5 0.00 0.00 0.00 56 1016.6
20260504035036 40 278 0.9 3.5 0.00 0.00 0.00 57 1016.7
20260504034536 41 283 1.7 3.5 0.00 0.00 0.00 57 1016.7
20260504034035 41 284 1.7 3.5 0.00 0.00 0.00 56 1016.6
20260504033538 42 277 0.9 5.2 0.00 0.00 0.00 55 1016.6
20260504033037 42 267 0.9 5.2 0.00 0.00 0.00 55 1016.8
20260504032535 42 259 0.9 3.5 0.00 0.00 0.00 55 1016.8
20260504032035 42 231 1.7 3.5 0.00 0.00 0.00 54 1016.8
20260504031540 43 281 1.7 6.1 0.00 0.00 0.00 54 1016.7
20260504031036 43 284 2.6 6.1 0.00 0.00 0.00 52 1016.7
20260504030535 44 285 1.7 5.2 0.00 0.00 0.00 50 1016.6
20260504030034 45 253 1.7 6.1 0.00 0.00 0.00 49 1016.5
20260504025534 45 253 2.6 8.7 0.00 0.00 0.00 49 1016.5
20260504025034 45 291 3.5 5.2 0.00 0.00 0.00 50 1016.7
20260504024536 45 269 2.6 7.8 0.00 0.00 0.00 49 1016.5
20260504024033 45 280 4.3 7.8 0.00 0.00 0.00 50 1016.4
20260504023533 44 278 2.6 6.1 0.00 0.00 0.00 51 1016.4